La Junta, CO

10:23 PM MDT on August 18, 2019 (GMT -0600)
La Junta Municipal

Weather History for KLHX - July, 2019

Change the Weather History Date:

Monday, July 22, 2019

  Actual Average Record
Temperature  
Mean Temperature 73 °F -  
Max Temperature 84 °F 94 °F 106 °F (1963)
Min Temperature 63 °F 64 °F 54 °F (1973)
Degree Days  
Heating Degree Days 0 0  
Month to date heating degree days 0 0  
Since 1 June heating degree days 5 16  
Since 1 July heating degree days 0 0  
Cooling Degree Days 9 14  
Growing Degree Days 23 (Base 50)    
Moisture  
Dew Point 61 °F    
Average Humidity 70    
Maximum Humidity 93    
Minimum Humidity 47    
Precipitation  
Precipitation 0.32 in 0.07 in 2.84 in (1966)
Month to date precipitation 1.71 1.29  
Year to date precipitation 5.32 6.94  
Sea Level Pressure  
Sea Level Pressure 30.25 in    
Wind  
Wind Speed 10 mph (ESE)    
Max Wind Speed 21 mph    
Max Gust Speed 28 mph    
Visibility 9 miles    
Events Rain , Thunderstorm    
T = Trace of Precipitation, MM = Missing Value Source: NWS Daily Summary

Daily Weather History Graph

Daily Weather History Graph

Search for Another Location

Airport or City:

Astronomy

Jul. 22, 2019 Rise Set
Actual Time 5:48 AM MDT 8:12 PM MDT
Civil Twilight 5:18 AM MDT 8:42 PM MDT
Nautical Twilight 4:41 AM MDT 9:19 PM MDT
Astronomical Twilight 4:00 AM MDT 9:59 PM MDT
Moon 11:38 PM MDT (7/22) 11:03 AM MDT (7/22)
Length of Visible Light 15h 23m
Length of Day
14h 23m
Waning Gibbous, 72% of the Moon is Illuminated
Jul 22
Waning Gibbous
Jul 24
Last Quarter
Jul 31
New
Aug 7
First Quarter
Aug 15
Full

Hourly Weather History & Observations

Time (MDT) Temp. Heat Index Dew Point Humidity Pressure Visibility Wind Dir Wind Speed Gust Speed Precip Events Conditions
12:14 AM 66.0 °F - 62.1 °F 87% 30.32 in 10.0 mi SW 15.0 mph - 0.00 in Thunderstorm Mostly Cloudy
12:28 AM 64.9 °F - 61.0 °F 87% 30.33 in 10.0 mi SW 15.0 mph - 0.00 in Thunderstorm Thunderstorm
12:43 AM 64.9 °F - 61.0 °F 87% 30.37 in 4.0 mi NNE 8.1 mph - 0.04 in Rain , Thunderstorm Heavy Rain
12:49 AM 64.4 °F - 60.8 °F 88% 30.37 in 1.8 mi Calm Calm - 0.15 in Rain , Thunderstorm Heavy Rain
12:53 AM 64.0 °F - 61.0 °F 90% 30.18 in 1.0 mi WSW 5.8 mph - 0.24 in Rain , Thunderstorm Heavy Rain
1:01 AM 64.0 °F - 61.0 °F 90% 30.36 in 1.2 mi NE 8.1 mph - 0.10 in Rain , Thunderstorm Heavy Rain
1:08 AM 64.0 °F - 61.0 °F 90% 30.35 in 1.8 mi NNW 4.6 mph - 0.20 in Rain , Thunderstorm Heavy Rain
1:19 AM 64.0 °F - 60.1 °F 87% 30.34 in 1.8 mi WNW 12.7 mph - 0.31 in Rain , Thunderstorm Heavy Thunderstorms and Rain
1:53 AM 64.0 °F - 60.1 °F 87% 30.14 in 10.0 mi WNW 11.5 mph - 0.38 in Rain Light Rain
2:53 AM 64.9 °F - 61.0 °F 87% 30.12 in 10.0 mi SE 4.6 mph - 0.02 in   Mostly Cloudy
3:53 AM 64.9 °F - 61.0 °F 87% 30.13 in 10.0 mi ESE 6.9 mph - N/A   Mostly Cloudy
4:53 AM 64.9 °F - 62.1 °F 90% 30.15 in 10.0 mi SSE 6.9 mph - N/A   Scattered Clouds
5:32 AM 64.9 °F - 62.1 °F 90% 30.34 in 10.0 mi South 5.8 mph - N/A   Mostly Cloudy
5:53 AM 64.9 °F - 62.1 °F 90% 30.19 in 10.0 mi South 4.6 mph - N/A   Overcast
6:53 AM 66.0 °F - 63.0 °F 90% 30.21 in 10.0 mi SE 4.6 mph - N/A   Overcast
7:25 AM 66.0 °F - 63.0 °F 90% 30.39 in 10.0 mi SE 5.8 mph - N/A   Overcast
7:34 AM 66.9 °F - 63.0 °F 87% 30.39 in 10.0 mi ESE 6.9 mph - N/A   Overcast
7:53 AM 66.9 °F - 63.0 °F 87% 30.22 in 10.0 mi ESE 5.8 mph - N/A   Overcast
8:33 AM 66.9 °F - 64.0 °F 90% 30.39 in 10.0 mi East 8.1 mph - N/A   Overcast
8:53 AM 68.0 °F - 64.0 °F 87% 30.22 in 10.0 mi East 6.9 mph - N/A   Overcast
9:00 AM 68.0 °F - 63.0 °F 84% 30.39 in 10.0 mi ESE 10.4 mph - N/A   Overcast
9:53 AM 70.0 °F - 63.0 °F 78% 30.22 in 10.0 mi ESE 9.2 mph - N/A   Overcast
10:16 AM 71.1 °F - 63.0 °F 75% 30.38 in 10.0 mi SE 9.2 mph - N/A   Mostly Cloudy
10:26 AM 72.0 °F - 62.1 °F 71% 30.38 in 10.0 mi SE 11.5 mph - N/A   Scattered Clouds
10:53 AM 73.0 °F - 62.1 °F 68% 30.21 in 10.0 mi SE 9.2 mph - N/A   Mostly Cloudy
11:24 AM 75.0 °F - 62.1 °F 64% 30.37 in 10.0 mi SE 8.1 mph - N/A   Mostly Cloudy
11:31 AM 75.9 °F - 62.1 °F 62% 30.37 in 10.0 mi ESE 9.2 mph - N/A   Mostly Cloudy
11:39 AM 75.0 °F - 61.0 °F 62% 30.37 in 10.0 mi Variable 6.9 mph - N/A   Scattered Clouds
11:53 AM 77.0 °F - 62.1 °F 60% 30.20 in 10.0 mi SE 6.9 mph - N/A   Scattered Clouds
12:53 PM 78.1 °F - 61.0 °F 56% 30.18 in 10.0 mi ESE 9.2 mph - N/A   Partly Cloudy
1:53 PM 80.1 °F 81.1 °F 61.0 °F 52% 30.16 in 10.0 mi East 9.2 mph 18.4 mph N/A   Partly Cloudy
2:53 PM 81.0 °F 82.2 °F 63.0 °F 54% 30.14 in 10.0 mi East 17.3 mph 25.3 mph N/A   Partly Cloudy
3:53 PM 82.9 °F 83.3 °F 61.0 °F 47% 30.11 in 10.0 mi East 18.4 mph 24.2 mph N/A   Clear
4:53 PM 82.9 °F 83.2 °F 60.1 °F 46% 30.10 in 10.0 mi ESE 15.0 mph - N/A   Clear
5:53 PM 81.0 °F 81.3 °F 59.0 °F 47% 30.11 in 10.0 mi East 15.0 mph - N/A   Partly Cloudy
6:53 PM 79.0 °F - 61.0 °F 54% 30.12 in 10.0 mi East 13.8 mph - N/A   Partly Cloudy
7:53 PM 75.9 °F - 60.1 °F 58% 30.16 in 10.0 mi ENE 13.8 mph - N/A   Mostly Cloudy
8:53 PM 73.0 °F - 60.1 °F 64% 30.18 in 10.0 mi East 11.5 mph - N/A   Partly Cloudy
9:53 PM 73.0 °F - 60.1 °F 64% 30.19 in 10.0 mi ESE 8.1 mph - N/A   Scattered Clouds
10:53 PM 72.0 °F - 59.0 °F 64% 30.17 in 10.0 mi SE 12.7 mph - N/A   Clear
11:53 PM 72.0 °F - 59.0 °F 64% 30.18 in 10.0 mi ESE 9.2 mph - N/A   Mostly Cloudy